Torna al catalogo

STARLINK-32597

AttivoComunicazioniVLEO
NORAD 62304·PAYLOAD·🇺🇸 United States

Lanciato Dec 13, 2024 da Vandenberg Space Force Base

Loading…

Prossimi Passaggi (prossime 24 ore)

TLE

AggiornatoSource: CelesTrak SupGP

Epoca: Sep 14, 2026, 14:19 UTC

1 62304C 24239D   26257.59701389 -.00084802  00000+0 -25058-2 0  2571
2 62304  53.1605  21.1526 0001234  78.4293 229.0745 15.34428595    13

Traccia STARLINK-32597 in tempo reale con AllMySat

Download on the App Store